Regional Weather Roundup
Issued by NWS

Home | Current Version | Previous Version | Text Only | Print | Product List | Glossary Off
Versions: 1 2 3 4 5 6 7 8 9 10 11 12 13 14 15 16 17 18 19 20 21 22 23 24 25 26 27 28 29 30 31 32 33 34 35 36 37 38 39 40 41 42 43 44 45 46 47 48 49 50

000
ASUS45 KBOU 312310
RWRCO

WEATHER ROUNDUP FOR COLORADO
NATIONAL WEATHER SERVICE DENVER/BOULDER CO
500 PM MDT FRI JUL 31 2015

NOTE: "FAIR" INDICATES FEW OR NO CLOUDS BELOW 12000 FEET WITH NO
SIGNIFICANT WEATHER AND/OR OBSTRUCTIONS TO VISIBILITY.

COZ001>005-013-030-031-010000-
...NORTHWEST COLORADO...

CITY           SKY/WX    TMP DP  RH WIND       PRES   REMARKS
CRAIG          SUNNY     91  24   9 VRB3      30.23F
HAYDEN         SUNNY     88  25  10 NW8       30.27F
MEEKER         SUNNY     91  23   8 N5        30.25F
MOUNT WERNER   NOT AVBL
STEAMBOAT SPGS SUNNY     85  28  12 N7        30.29F
WALDEN         SUNNY     77  27  15 NW7       30.40F
$$

COZ006>008-011-010000-
...WEST CENTRAL VALLEYS...

CITY           SKY/WX    TMP DP  RH WIND       PRES   REMARKS
GRAND JUNCTION MOSUNNY   94  28   9 W7        30.12F
MONTROSE       PTSUNNY   83  44  25 SW8       30.24S
EAGLE          MOSUNNY   90  36  14 S18G24    30.26F
RIFLE          SUNNY     94  28   9 NW8       30.16F
DELTA          PTSUNNY   94  34  12 W14G23    30.16S HAZE
NUCLA          PTSUNNY   86  45  23 SE10      30.28S
$$

COZ017>023-064>068-010000-
...SOUTHWEST COLORADO...

CITY           SKY/WX    TMP DP  RH WIND       PRES   REMARKS
DURANGO        CLOUDY    75  49  39 SE8       30.36S
CORTEZ         MOSUNNY   75  56  51 N17G25    30.30R
PAGOSA SPRINGS CLOUDY    67  51  56 W8        30.44F
TELLURIDE      PTSUNNY   65  50  57 CALM      30.55S THUNDER
WOLF CREEK PAS NOT AVBL
$$

COZ009-010-012-014-032>034-037-058>063-010000-
...CENTRAL COLORADO...

CITY           SKY/WX    TMP DP  RH WIND       PRES   REMARKS
ASPEN          PTSUNNY   74  44  34 SE10      30.41F
BUENA VISTA    PTSUNNY   73  39  29 W9        30.42S
COPPER MTN     CLOUDY    63  36  36 S14       30.75F
BERTHOUD PASS  FAIR      48  37  66 E18G26    30.80F
COTTONWOOD PAS CLOUDY    66  37  34 W6        30.59S
GUNNISON       PTSUNNY   75  41  29 SE5       30.42F
KREMMLING      MOSUNNY   88  19   8 NW10      30.33F
LEADVILLE      CLOUDY    61  42  49 S7        30.57S
MONARCH PASS   CLOUDY    52  41  66 SW9       30.86R
SALIDA         NOT AVBL
SUNLIGHT       MOSUNNY   70  37  30 CALM      30.66F
WILKERSON PASS HVY RAIN  46  45  93 E10       30.74S
$$

COZ069>075-010000-
...SAN LUIS VALLEY/SANGRE DE CRISTO MOUNTAINS...

CITY           SKY/WX    TMP DP  RH WIND       PRES   REMARKS
ALAMOSA        LGT RAIN  63  56  78 S15G29    30.42R
LA VETA PASS   CLOUDY    59  43  55 MISG      30.61F
SAGUACHE       CLOUDY    70  45  40 N23G36    30.43R
$$

COZ035-036-038>040-010000-
...NORTHERN COLORADO FRONT RANGE...

CITY           SKY/WX    TMP DP  RH WIND       PRES   REMARKS
DENVER INTL AP PTSUNNY   89  45  21 SE6G22    30.23F
DMNS CITY PARK   N/A     84  48  28 S9G17     30.23S
AURORA         PTSUNNY   85  49  28 SE13      30.26F
FRONT RANGE AP NOT AVBL
ERIE MUNI ARPT CLOUDY    89  44  20 S6        30.20F
BOULDER MUN AP PTSUNNY   88  46  23 SE6       30.21F
CENTENNIAL     PTSUNNY   81  50  33 SW7       30.28F
BROOMFIELD     MOSUNNY   84  46  26 S8        30.26S
FORT COLLINS   MOSUNNY   90  46  22 SE12        N/A
LONGMONT       MOSUNNY   91  46  21 S6        30.22S
$$

COZ041-046-047-076>085-087-088-010000-
...PIKES PEAK/PALMER DIVIDE AND SOUTHERN FOOTHILLS...

CITY           SKY/WX    TMP DP  RH WIND       PRES   REMARKS
COLO. SPRINGS  PTSUNNY   82  48  30 E9        30.32S
A. F. ACADEMY  PTSUNNY   78  45  30 SE8       30.33S
ELLICOTT       MOSUNNY  N/A N/A N/A E15       30.30S
FALCON         MOSUNNY   80  47  30 E9        30.38S
FORT CARSON    MOSUNNY   83  48  29 E9        30.27F
LIMON          SUNNY     84  50  30 VRB7G18   30.26F
MONUMENT HILL  CLOUDY    72  48  43 W3        30.40R
TRINIDAD       MOSUNNY   85  52  32 NE7       30.25F
$$

COZ042>045-048>051-090-091-010000-
...NORTHEAST COLORADO...

CITY           SKY/WX    TMP DP  RH WIND       PRES   REMARKS
GREELEY ARPT   MOSUNNY   90  48  24 E8        30.19F
AKRON          SUNNY     88  45  22 SE13G20   30.21F
BURLINGTON     SUNNY     86  54  33 S12       30.19F
WRAY           SUNNY     95  46  18 SW5       30.14F
STERLING       SUNNY     91  52  25 SE8       30.14F
HOLYOKE        NOT AVBL
FORT MORGAN    SUNNY     91  39  16 SE6       30.19F
$$

COZ086-089-092>099-010000-
...SOUTHEAST COLORADO...

CITY           SKY/WX    TMP DP  RH WIND       PRES   REMARKS
PUEBLO         PTSUNNY   91  52  26 SE12G22   30.18S
LA JUNTA       SUNNY     89  56  32 E10       30.15F
LAMAR          SUNNY     88  57  34 SE12G23   30.13F
SPRINGFIELD      N/A     80  63  55 SE8       30.20F
$$



USA.gov is the U.S. government's official web portal to all federal, state and local government web resources and services.